Satellite: NOAA-18
Catalog number: 28654
Epoch time:      08107.72177831
Element set:    0398
Inclination:      098.8632 deg
RA of node:       049.4201 deg
Eccentricity:    0.0014935
Arg of perigee:   124.7094 deg
Mean anomaly:     235.5489 deg
Mean motion:   14.11154498 rev/day
Decay rate:       -9.0e-08 rev/day^2
Epoch rev:           14980
Checksum:              329

/EX
SB KEPS @ AMSAT  $ORB08108.M
Orbital Elements  08108.MISC

HR AMSAT ORBITAL ELEMENTS FOR MANNED AND MISCELLANEOUS SATELLITES
FROM WA5QGD FORT WORTH,TX April 17, 2008
Send Subscribe/unsubscribe to KEPS at 
http://www.amsat.org/mailman/listinfo/keps
BID: ORB08108.M
TO ALL RADIO AMATEURS BT

Satellite: HUBBLE
Catalog number: 20580
Epoch time:      08107.94661864
Element set:    0118
Inclination:      028.4691 deg
RA of node:       002.6426 deg
Eccentricity:    0.0003627
Arg of perigee:   096.7204 deg
Mean anomaly:     263.3797 deg
Mean motion:   15.00365584 rev/day
Decay rate:       3.29e-06 rev/day^2
Epoch rev:           78577
Checksum:              312

Satellite: UARS
Catalog number: 21701
Epoch time:      08107.95676551
Element set:    0347
Inclination:      056.9721 deg
RA of node:       068.4861 deg
Eccentricity:    0.0090649
Arg of perigee:   064.8305 deg
Mean anomaly:     296.2119 deg
Mean motion:   15.51311551 rev/day
Decay rate:      5.490e-05 rev/day^2
Epoch rev:           91299
Checksum:              316

Satellite: PO-34
Catalog number: 25520
Epoch time:      08107.56070301
Element set:    0983
Inclination:      028.4598 deg
RA of node:       231.3562 deg
Eccentricity:    0.0004925
Arg of perigee:   330.7045 deg
Mean anomaly:     029.3275 deg
Mean motion:   15.17173749 rev/day
Decay rate:       3.88e-06 rev/day^2
Epoch rev:           52379
Checksum:              307

Satellite: ISS
Catalog number: 25544
Epoch time:      08108.84026620
Element set:     325
Inclination:      051.6405 deg
RA of node:       327.4136 deg
Eccentricity:    0.0001498
Arg of perigee:   018.3520 deg
Mean anomaly:     164.0675 deg
Mean motion:   15.77562016 rev/day
Decay rate:     1.5758e-04 rev/day^2
Epoch rev:           53900
Checksum:              282

Satellite: OO-38
Catalog number: 26063
Epoch time:      08107.76069434
Element set:     187
Inclination:      100.1955 deg
RA of node:       171.2649 deg
Eccentricity:    0.0036974
Arg of perigee:   023.2104 deg
Mean anomaly:     337.0736 deg
Mean motion:   14.35832286 rev/day
Decay rate:       -3.2e-07 rev/day^2
Epoch rev:           43075
Checksum:              298

Satellite: UWE-1
Catalog number: 28892
Epoch time:      08107.73040238
Element set:    0025
Inclination:      098.1029 deg
RA of node:       002.8197 deg
Eccentricity:    0.0016197
Arg of perigee:   241.1864 deg
Mean anomaly:     118.7727 deg
Mean motion:   14.59615538 rev/day
Decay rate:       -2.0e-07 rev/day^2
Epoch rev:           13163
Checksum:              294

Satellite: CO-58
Catalog number: 28895
Epoch time:      08107.70002265
Element set:    0999
Inclination:      098.1049 deg
RA of node:       003.1223 deg
Eccentricity:    0.0016849
Arg of perigee:   240.3872 deg
Mean anomaly:     119.5668 deg
Mean motion:   14.59657686 rev/day
Decay rate:       1.54e-06 rev/day^2
Epoch rev:           13151
Checksum:              330

Satellite: NCUBE2
Catalog number: 28897
Epoch time:      08107.67170891
Element set:     528
Inclination:      098.1022 deg
RA of node:       003.0295 deg
Eccentricity:    0.0016216
Arg of perigee:   243.5002 deg
Mean anomaly:     116.4542 deg
Mean motion:   14.59827037 rev/day
Decay rate:       1.60e-06 rev/day^2
Epoch rev:           12379
Checksum:              286

Satellite: FCAL
Catalog number: 29667
Epoch time:      08107.90761894
Element set:    0898
Inclination:      051.6258 deg
RA of node:       277.2812 deg
Eccentricity:    0.0003014
Arg of perigee:   110.2288 deg
Mean anomaly:     249.9139 deg
Mean motion:   16.12876714 rev/day
Decay rate:    1.31350e-03 rev/day^2
Epoch rev:           07667
Checksum:              326

Satellite: FALCON
Catalog number: 30776
Epoch time:      08108.59307229
Element set:     292
Inclination:      035.4333 deg
RA of node:       160.9739 deg
Eccentricity:    0.0001070
Arg of perigee:   263.8741 deg
Mean anomaly:     096.1852 deg
Mean motion:   15.02953128 rev/day
Decay rate:       3.47e-06 rev/day^2
Epoch rev:            6102
Checksum:              284

Satellite: MAST
Catalog number: 31126
Epoch time:      08108.65875094
Element set:     304
Inclination:      098.0416 deg
RA of node:       175.4999 deg
Eccentricity:    0.0095512
Arg of perigee:   159.0557 deg
Mean anomaly:     201.4592 deg
Mean motion:   14.53415159 rev/day
Decay rate:       -5.0e-08 rev/day^2
Epoch rev:            5322
Checksum:              297

Satellite: CAPE1
Catalog number: 31130
Epoch time:      08108.75541925
Element set:     285
Inclination:      098.0427 deg
RA of node:       174.7418 deg
Eccentricity:    0.0103429
Arg of perigee:   161.2196 deg
Mean anomaly:     199.2860 deg
Mean motion:   14.51951156 rev/day
Decay rate:       -7.0e-07 rev/day^2
Epoch rev:            5295
Checksum:              298

/EX



_______________________________________________
Via the Keps mailing list courtesy of AMSAT-NA
http://amsat.org/mailman/listinfo/keps

--- ViaMAIL!/WC v1.60d
 * Origin: Chowdanet (401-724-4410) telnet://chowdanet.com  (1:323/120)